Time,TemperatureF,DewpointF,PressureIn,WindDirection,WindDirectionDegrees,WindSpeedMPH,WindSpeedGustMPH,Humidity,HourlyPrecipIn,Conditions,Clouds,dailyrainin,SoftwareType,DateUTC
2013-02-01 00:00:00,34.4,20.1,30.24,North,350,0.0,0.0,56,0.00,,---,0.00,VWS V14.00,2013-02-01 08:00:00,
2013-02-01 00:09:00,34.4,20.1,30.25,North,349,0.0,0.0,56,0.00,,---,0.00,VWS V14.00,2013-02-01 08:09:00,
2013-02-01 00:14:00,34.4,20.1,30.25,North,349,0.0,2.0,56,0.00,,---,0.00,VWS V14.00,2013-02-01 08:14:00,
2013-02-01 00:19:00,34.4,20.1,30.25,North,350,0.0,1.0,56,0.00,,---,0.00,VWS V14.00,2013-02-01 08:19:00,
2013-02-01 00:24:00,34.4,19.7,30.25,North,350,0.0,0.0,54,0.00,,---,0.00,VWS V14.00,2013-02-01 08:24:00,
2013-02-01 00:29:00,34.5,19.4,30.25,North,350,0.0,0.0,54,0.00,,---,0.00,VWS V14.00,2013-02-01 08:29:00,
2013-02-01 00:34:00,34.4,19.7,30.25,North,350,0.0,0.0,54,0.00,,---,0.00,VWS V14.00,2013-02-01 08:34:00,
2013-02-01 00:39:00,33.7,19.9,30.25,North,350,0.0,3.0,56,0.00,,---,0.00,VWS V14.00,2013-02-01 08:39:00,
2013-02-01 00:44:00,32.9,19.5,30.25,North,349,0.0,0.0,58,0.00,,---,0.00,VWS V14.00,2013-02-01 08:44:00,
2013-02-01 00:49:00,33.0,19.2,30.25,North,350,0.0,0.0,56,0.00,,---,0.00,VWS V14.00,2013-02-01 08:49:00,
2013-02-01 00:54:00,32.9,19.5,30.25,North,349,0.0,0.0,58,0.00,,---,0.00,VWS V14.00,2013-02-01 08:54:00,
2013-02-01 00:59:00,32.7,19.8,30.25,North,350,0.0,0.0,58,0.00,,---,0.00,VWS V14.00,2013-02-01 08:59:00,
2013-02-01 01:04:00,32.7,19.4,30.25,North,350,0.0,0.0,58,0.00,,---,0.00,VWS V14.00,2013-02-01 09:04:00,
2013-02-01 01:14:00,32.4,18.7,30.25,North,350,0.0,0.0,56,0.00,,---,0.00,VWS V14.00,2013-02-01 09:14:00,
2013-02-01 01:19:00,31.8,18.5,30.25,North,350,0.0,0.0,58,0.00,,---,0.00,VWS V14.00,2013-02-01 09:19:00,
2013-02-01 01:24:00,31.7,18.8,30.25,North,350,0.0,0.0,58,0.00,,---,0.00,VWS V14.00,2013-02-01 09:24:00,
2013-02-01 01:29:00,32.2,18.9,30.25,North,350,0.0,0.0,58,0.00,,---,0.00,VWS V14.00,2013-02-01 09:29:00,
2013-02-01 01:34:00,33.3,19.1,30.25,North,350,0.0,0.0,56,0.00,,---,0.00,VWS V14.00,2013-02-01 09:34:00,
2013-02-01 01:39:00,34.3,19.2,30.25,North,350,0.0,0.0,54,0.00,,---,0.00,VWS V14.00,2013-02-01 09:39:00,
2013-02-01 01:44:00,35.4,19.3,30.25,North,349,0.0,0.0,52,0.00,,---,0.00,VWS V14.00,2013-02-01 09:44:00,
2013-02-01 01:49:00,35.9,19.3,30.25,North,350,0.0,0.0,50,0.00,,---,0.00,VWS V14.00,2013-02-01 09:49:00,
2013-02-01 01:54:00,36.2,19.6,30.25,North,350,0.0,0.0,50,0.00,,---,0.00,VWS V14.00,2013-02-01 09:54:00,
2013-02-01 01:59:00,36.2,19.6,30.25,North,350,0.0,0.0,50,0.00,,---,0.00,VWS V14.00,2013-02-01 09:59:00,
2013-02-01 02:04:00,36.0,19.4,30.25,North,350,0.0,0.0,50,0.00,,---,0.00,VWS V14.00,2013-02-01 10:04:00,
2013-02-01 02:09:00,35.8,19.2,30.26,North,350,0.0,0.0,50,0.00,,---,0.00,VWS V14.00,2013-02-01 10:09:00,
2013-02-01 02:14:00,35.7,19.1,30.25,North,350,0.0,0.0,50,0.00,,---,0.00,VWS V14.00,2013-02-01 10:14:00,
2013-02-01 02:19:00,35.6,19.0,30.26,North,349,0.0,0.0,50,0.00,,---,0.00,VWS V14.00,2013-02-01 10:19:00,
2013-02-01 02:24:00,35.4,18.9,30.26,North,349,0.0,0.0,50,0.00,,---,0.00,VWS V14.00,2013-02-01 10:24:00,
2013-02-01 02:29:00,35.3,18.3,30.26,North,350,0.0,0.0,50,0.00,,---,0.00,VWS V14.00,2013-02-01 10:29:00,
2013-02-01 02:34:00,35.6,18.6,30.26,North,350,0.0,0.0,50,0.00,,---,0.00,VWS V14.00,2013-02-01 10:34:00,
2013-02-01 02:39:00,35.7,18.2,30.26,North,350,0.0,0.0,48,0.00,,---,0.00,VWS V14.00,2013-02-01 10:39:00,
2013-02-01 02:44:00,35.6,18.6,30.26,North,349,0.0,0.0,50,0.00,,---,0.00,VWS V14.00,2013-02-01 10:44:00,
2013-02-01 02:49:00,34.7,18.7,30.26,North,350,0.0,0.0,52,0.00,,---,0.00,VWS V14.00,2013-02-01 10:49:00,
2013-02-01 02:54:00,34.4,18.4,30.26,North,350,0.0,0.0,52,0.00,,---,0.00,VWS V14.00,2013-02-01 10:54:00,
2013-02-01 02:59:00,34.4,18.4,30.25,North,349,0.0,0.0,52,0.00,,---,0.00,VWS V14.00,2013-02-01 10:59:00,
2013-02-01 03:04:00,34.3,18.7,30.26,North,350,0.0,0.0,52,0.00,,---,0.00,VWS V14.00,2013-02-01 11:04:00,
2013-02-01 03:09:00,34.3,18.3,30.25,North,350,0.0,0.0,52,0.00,,---,0.00,VWS V14.00,2013-02-01 11:09:00,
2013-02-01 03:14:00,34.4,17.9,30.25,North,350,0.0,0.0,50,0.00,,---,0.00,VWS V14.00,2013-02-01 11:14:00,
2013-02-01 03:19:00,34.8,17.8,30.25,North,349,0.0,0.0,50,0.00,,---,0.00,VWS V14.00,2013-02-01 11:19:00,
2013-02-01 03:24:00,35.0,18.5,30.25,North,350,0.0,0.0,50,0.00,,---,0.00,VWS V14.00,2013-02-01 11:24:00,
2013-02-01 03:29:00,34.0,18.0,30.25,North,350,0.0,0.0,52,0.00,,---,0.00,VWS V14.00,2013-02-01 11:29:00,
2013-02-01 03:34:00,34.0,18.0,30.25,North,350,0.0,0.0,52,0.00,,---,0.00,VWS V14.00,2013-02-01 11:34:00,
2013-02-01 03:39:00,34.0,18.0,30.25,North,350,0.0,0.0,52,0.00,,---,0.00,VWS V14.00,2013-02-01 11:39:00,
2013-02-01 03:44:00,34.0,18.0,30.25,North,350,0.0,0.0,52,0.00,,---,0.00,VWS V14.00,2013-02-01 11:44:00,
2013-02-01 03:49:00,34.0,18.0,30.25,North,350,0.0,0.0,52,0.00,,---,0.00,VWS V14.00,2013-02-01 11:49:00,
2013-02-01 03:59:00,34.0,18.0,30.25,North,350,0.0,0.0,52,0.00,,---,0.00,VWS V14.00,2013-02-01 11:59:00,
2013-02-01 04:04:00,34.0,18.0,30.25,North,350,0.0,0.0,52,0.00,,---,0.00,VWS V14.00,2013-02-01 12:04:00,
2013-02-01 04:09:00,34.0,18.0,30.25,North,350,0.0,0.0,52,0.00,,---,0.00,VWS V14.00,2013-02-01 12:09:00,
2013-02-01 04:14:00,34.0,18.0,30.25,North,350,0.0,0.0,52,0.00,,---,0.00,VWS V14.00,2013-02-01 12:14:00,
2013-02-01 04:19:00,34.0,18.0,30.25,North,350,0.0,0.0,52,0.00,,---,0.00,VWS V14.00,2013-02-01 12:19:00,
2013-02-01 04:24:00,34.0,18.0,30.25,North,350,0.0,0.0,52,0.00,,---,0.00,VWS V14.00,2013-02-01 12:24:00,
2013-02-01 04:29:00,34.0,18.0,30.25,North,350,0.0,0.0,52,0.00,,---,0.00,VWS V14.00,2013-02-01 12:29:00,
2013-02-01 04:34:00,34.0,18.0,30.25,North,350,0.0,0.0,52,0.00,,---,0.00,VWS V14.00,2013-02-01 12:34:00,
2013-02-01 04:39:00,34.0,18.0,30.25,North,350,0.0,0.0,52,0.00,,---,0.00,VWS V14.00,2013-02-01 12:39:00,
2013-02-01 04:44:00,34.0,18.0,30.25,North,350,0.0,0.0,52,0.00,,---,0.00,VWS V14.00,2013-02-01 12:44:00,
2013-02-01 04:54:00,34.0,18.0,30.25,North,350,0.0,0.0,52,0.00,,---,0.00,VWS V14.00,2013-02-01 12:54:00,
2013-02-01 04:59:00,34.0,18.0,30.25,North,350,0.0,0.0,52,0.00,,---,0.00,VWS V14.00,2013-02-01 12:59:00,
2013-02-01 05:04:00,34.0,18.0,30.25,North,350,0.0,0.0,52,0.00,,---,0.00,VWS V14.00,2013-02-01 13:04:00,
2013-02-01 05:09:00,34.0,18.0,30.25,North,350,0.0,0.0,52,0.00,,---,0.00,VWS V14.00,2013-02-01 13:09:00,
2013-02-01 05:14:00,34.0,18.0,30.25,North,350,0.0,0.0,52,0.00,,---,0.00,VWS V14.00,2013-02-01 13:14:00,
2013-02-01 05:19:00,34.0,18.0,30.25,North,350,0.0,0.0,52,0.00,,---,0.00,VWS V14.00,2013-02-01 13:19:00,
2013-02-01 05:24:00,34.0,18.0,30.25,North,350,0.0,0.0,52,0.00,,---,0.00,VWS V14.00,2013-02-01 13:24:00,
2013-02-01 05:29:00,34.0,18.0,30.25,North,350,0.0,0.0,52,0.00,,---,0.00,VWS V14.00,2013-02-01 13:29:00,
2013-02-01 05:34:00,34.0,18.0,30.25,North,350,0.0,0.0,52,0.00,,---,0.00,VWS V14.00,2013-02-01 13:34:00,
2013-02-01 05:39:00,34.0,18.0,30.25,North,350,0.0,0.0,52,0.00,,---,0.00,VWS V14.00,2013-02-01 13:39:00,
2013-02-01 05:44:00,34.0,18.0,30.25,North,350,0.0,0.0,52,0.00,,---,0.00,VWS V14.00,2013-02-01 13:44:00,
2013-02-01 05:49:00,34.0,18.0,30.25,North,350,0.0,0.0,52,0.00,,---,0.00,VWS V14.00,2013-02-01 13:49:00,
2013-02-01 05:54:00,34.0,18.0,30.25,North,350,0.0,0.0,52,0.00,,---,0.00,VWS V14.00,2013-02-01 13:54:00,
2013-02-01 05:59:00,34.0,18.0,30.25,North,350,0.0,0.0,52,0.00,,---,0.00,VWS V14.00,2013-02-01 13:59:00,
2013-02-01 06:04:00,34.0,18.0,30.25,North,350,0.0,0.0,52,0.00,,---,0.00,VWS V14.00,2013-02-01 14:04:00,
2013-02-01 06:09:00,34.0,18.0,30.25,North,350,0.0,0.0,52,0.00,,---,0.00,VWS V14.00,2013-02-01 14:09:00,
2013-02-01 06:14:00,34.0,18.0,30.26,North,350,0.0,0.0,52,0.00,,---,0.00,VWS V14.00,2013-02-01 14:14:00,
2013-02-01 06:19:00,34.0,18.0,30.26,North,350,0.0,0.0,52,0.00,,---,0.00,VWS V14.00,2013-02-01 14:19:00,
2013-02-01 06:24:00,34.0,18.0,30.26,North,350,0.0,0.0,52,0.00,,---,0.00,VWS V14.00,2013-02-01 14:24:00,
2013-02-01 06:29:00,34.0,18.0,30.26,North,350,0.0,0.0,52,0.00,,---,0.00,VWS V14.00,2013-02-01 14:29:00,
2013-02-01 06:39:00,34.0,18.0,30.26,North,350,0.0,0.0,52,0.00,,---,0.00,VWS V14.00,2013-02-01 14:39:00,
2013-02-01 06:44:00,34.0,18.0,30.26,North,350,0.0,0.0,52,0.00,,---,0.00,VWS V14.00,2013-02-01 14:44:00,
2013-02-01 06:50:00,34.0,18.0,30.26,North,350,0.0,0.0,52,0.00,,---,0.00,VWS V14.00,2013-02-01 14:50:00,
2013-02-01 06:55:00,34.0,18.0,30.26,North,350,0.0,0.0,52,0.00,,---,0.00,VWS V14.00,2013-02-01 14:55:00,
2013-02-01 07:00:00,34.0,18.0,30.26,North,350,0.0,0.0,52,0.00,,---,0.00,VWS V14.00,2013-02-01 15:00:00,
2013-02-01 07:09:00,34.0,18.0,30.26,North,350,0.0,0.0,52,0.00,,---,0.00,VWS V14.00,2013-02-01 15:09:00,
2013-02-01 07:14:00,34.0,18.0,30.26,North,350,0.0,0.0,52,0.00,,---,0.00,VWS V14.00,2013-02-01 15:14:00,
2013-02-01 07:19:00,34.0,18.0,30.26,North,350,0.0,0.0,52,0.00,,---,0.00,VWS V14.00,2013-02-01 15:19:00,
2013-02-01 07:24:00,34.0,18.0,30.26,North,350,0.0,0.0,52,0.00,,---,0.00,VWS V14.00,2013-02-01 15:24:00,
2013-02-01 07:30:00,34.0,18.0,30.26,North,350,0.0,0.0,52,0.00,,---,0.00,VWS V14.00,2013-02-01 15:30:00,
2013-02-01 07:39:00,34.0,18.0,30.27,North,350,0.0,0.0,52,0.00,,---,0.00,VWS V14.00,2013-02-01 15:39:00,
2013-02-01 07:44:00,34.0,18.0,30.27,North,350,0.0,0.0,52,0.00,,---,0.00,VWS V14.00,2013-02-01 15:44:00,
2013-02-01 07:49:00,34.0,18.0,30.27,North,350,0.0,0.0,52,0.00,,---,0.00,VWS V14.00,2013-02-01 15:49:00,
2013-02-01 07:54:00,31.7,18.4,30.27,North,349,0.0,0.0,58,0.00,,---,0.00,VWS V14.00,2013-02-01 15:54:00,
2013-02-01 08:04:00,33.4,17.5,30.27,North,349,0.0,0.0,52,0.00,,---,0.00,VWS V14.00,2013-02-01 16:04:00,
2013-02-01 08:09:00,33.5,17.5,30.27,North,350,0.0,0.0,52,0.00,,---,0.00,VWS V14.00,2013-02-01 16:09:00,
2013-02-01 08:15:00,33.1,17.6,30.28,North,350,0.0,0.0,52,0.00,,---,0.00,VWS V14.00,2013-02-01 16:15:00,
2013-02-01 08:24:00,34.4,18.4,30.28,North,350,0.0,0.0,52,0.00,,---,0.00,VWS V14.00,2013-02-01 16:24:00,
2013-02-01 08:30:00,35.3,18.8,30.28,North,350,0.0,0.0,50,0.00,,---,0.00,VWS V14.00,2013-02-01 16:30:00,
2013-02-01 08:40:00,37.1,19.5,30.28,North,350,0.0,0.0,48,0.00,,---,0.00,VWS V14.00,2013-02-01 16:40:00,
2013-02-01 08:45:00,37.4,17.2,30.28,North,350,0.0,0.0,44,0.00,,---,0.00,VWS V14.00,2013-02-01 16:45:00,
2013-02-01 08:54:00,37.4,16.1,30.28,North,350,0.0,0.0,42,0.00,,---,0.00,VWS V14.00,2013-02-01 16:54:00,
2013-02-01 09:00:00,37.5,16.8,30.28,North,350,0.0,0.0,42,0.00,,---,0.00,VWS V14.00,2013-02-01 17:00:00,
2013-02-01 09:05:00,37.5,16.2,30.28,North,350,0.0,0.0,42,0.00,,---,0.00,VWS V14.00,2013-02-01 17:05:00,
2013-02-01 09:10:00,37.7,15.9,30.28,North,350,0.0,0.0,40,0.00,,---,0.00,VWS V14.00,2013-02-01 17:10:00,
2013-02-01 09:20:00,37.5,18.9,30.28,North,350,0.0,0.0,46,0.00,,---,0.00,VWS V14.00,2013-02-01 17:20:00,
2013-02-01 09:29:00,37.5,20.3,30.28,North,350,0.0,0.0,50,0.00,,---,0.00,VWS V14.00,2013-02-01 17:29:00,
2013-02-01 09:34:00,37.4,20.2,30.28,North,349,0.0,0.0,50,0.00,,---,0.00,VWS V14.00,2013-02-01 17:34:00,
2013-02-01 09:40:00,37.4,20.2,30.28,North,350,0.0,0.0,50,0.00,,---,0.00,VWS V14.00,2013-02-01 17:40:00,
2013-02-01 09:45:00,37.6,20.9,30.28,North,350,0.0,0.0,50,0.00,,---,0.00,VWS V14.00,2013-02-01 17:45:00,
2013-02-01 09:54:00,37.9,19.7,30.28,North,350,0.0,0.0,48,0.00,,---,0.00,VWS V14.00,2013-02-01 17:54:00,
2013-02-01 10:00:00,38.0,19.3,30.29,North,350,0.0,0.0,46,0.00,,---,0.00,VWS V14.00,2013-02-01 18:00:00,
2013-02-01 10:05:00,38.0,19.3,30.28,North,350,0.0,0.0,46,0.00,,---,0.00,VWS V14.00,2013-02-01 18:05:00,
2013-02-01 10:10:00,38.0,19.3,30.29,North,349,0.0,0.0,46,0.00,,---,0.00,VWS V14.00,2013-02-01 18:10:00,
2013-02-01 10:20:00,38.6,19.9,30.29,North,350,0.0,0.0,46,0.00,,---,0.00,VWS V14.00,2013-02-01 18:20:00,
2013-02-01 10:30:00,39.8,20.5,30.28,North,349,0.0,0.0,46,0.00,,---,0.00,VWS V14.00,2013-02-01 18:30:00,
2013-02-01 10:40:00,41.0,21.6,30.28,North,350,0.0,0.0,46,0.00,,---,0.00,VWS V14.00,2013-02-01 18:40:00,
2013-02-01 10:50:00,41.7,21.1,30.28,North,350,0.0,0.0,44,0.00,,---,0.00,VWS V14.00,2013-02-01 18:50:00,
2013-02-01 10:59:00,42.0,21.4,30.28,North,350,0.0,0.0,44,0.00,,---,0.00,VWS V14.00,2013-02-01 18:59:00,
2013-02-01 11:05:00,42.3,21.1,30.28,North,349,0.0,0.0,42,0.00,,---,0.00,VWS V14.00,2013-02-01 19:05:00,
2013-02-01 11:10:00,42.3,21.7,30.28,North,350,0.0,2.0,44,0.00,,---,0.00,VWS V14.00,2013-02-01 19:10:00,
2013-02-01 11:19:00,42.9,22.2,30.27,North,349,0.0,0.0,44,0.00,,---,0.00,VWS V14.00,2013-02-01 19:19:00,
2013-02-01 11:25:00,43.1,22.4,30.27,North,350,2.0,5.0,44,0.00,,---,0.00,VWS V14.00,2013-02-01 19:25:00,
2013-02-01 11:35:00,43.1,21.9,30.27,North,350,0.0,0.0,42,0.00,,---,0.00,VWS V14.00,2013-02-01 19:35:00,
2013-02-01 11:45:00,43.6,23.4,30.27,North,350,0.0,0.0,44,0.00,,---,0.00,VWS V14.00,2013-02-01 19:45:00,
2013-02-01 11:50:00,44.1,22.2,30.27,North,350,0.0,0.0,42,0.00,,---,0.00,VWS V14.00,2013-02-01 19:50:00,
2013-02-01 11:55:00,44.5,21.4,30.27,North,349,0.0,0.0,40,0.00,,---,0.00,VWS V14.00,2013-02-01 19:55:00,
2013-02-01 12:00:00,44.8,21.1,30.26,North,350,0.0,0.0,38,0.00,,---,0.00,VWS V14.00,2013-02-01 20:00:00,
2013-02-01 12:05:00,45.1,20.7,30.26,North,350,0.0,0.0,38,0.00,,---,0.00,VWS V14.00,2013-02-01 20:05:00,
2013-02-01 12:14:00,46.0,20.9,30.26,North,350,0.0,0.0,36,0.00,,---,0.00,VWS V14.00,2013-02-01 20:14:00,
2013-02-01 12:20:00,46.3,19.8,30.26,North,350,0.0,0.0,34,0.00,,---,0.00,VWS V14.00,2013-02-01 20:20:00,
2013-02-01 12:25:00,46.4,20.6,30.26,North,350,0.0,0.0,36,0.00,,---,0.00,VWS V14.00,2013-02-01 20:25:00,
2013-02-01 12:30:00,46.7,22.8,30.25,North,350,0.0,0.0,38,0.00,,---,0.00,VWS V14.00,2013-02-01 20:30:00,
2013-02-01 12:40:00,47.0,20.5,30.25,North,350,0.0,3.0,34,0.00,,---,0.00,VWS V14.00,2013-02-01 20:40:00,
2013-02-01 12:50:00,47.2,19.2,30.25,North,350,4.0,5.0,32,0.00,,---,0.00,VWS V14.00,2013-02-01 20:50:00,
2013-02-01 12:55:00,47.3,17.8,30.25,North,350,0.0,6.0,30,0.00,,---,0.00,VWS V14.00,2013-02-01 20:55:00,
2013-02-01 13:00:00,47.3,17.1,30.25,North,350,0.0,6.0,30,0.00,,---,0.00,VWS V14.00,2013-02-01 21:00:00,
2013-02-01 13:05:00,47.4,17.1,30.25,North,350,0.0,1.0,30,0.00,,---,0.00,VWS V14.00,2013-02-01 21:05:00,
2013-02-01 13:15:00,47.9,15.1,30.25,North,349,0.0,4.0,26,0.00,,---,0.00,VWS V14.00,2013-02-01 21:15:00,
2013-02-01 13:20:00,48.2,16.2,30.25,North,350,0.0,0.0,28,0.00,,---,0.00,VWS V14.00,2013-02-01 21:20:00,
2013-02-01 13:25:00,48.5,18.1,30.24,North,350,0.0,0.0,30,0.00,,---,0.00,VWS V14.00,2013-02-01 21:25:00,
2013-02-01 13:30:00,48.9,19.2,30.24,North,350,0.0,0.0,30,0.00,,---,0.00,VWS V14.00,2013-02-01 21:30:00,
2013-02-01 13:35:00,49.2,17.9,30.25,North,350,0.0,4.0,28,0.00,,---,0.00,VWS V14.00,2013-02-01 21:35:00,
2013-02-01 13:40:00,49.5,19.0,30.24,North,350,0.0,0.0,30,0.00,,---,0.00,VWS V14.00,2013-02-01 21:40:00,
2013-02-01 13:45:00,49.6,18.3,30.24,North,350,0.0,0.0,28,0.00,,---,0.00,VWS V14.00,2013-02-01 21:45:00,
2013-02-01 13:50:00,49.7,19.9,30.24,North,350,0.0,0.0,30,0.00,,---,0.00,VWS V14.00,2013-02-01 21:50:00,
2013-02-01 13:55:00,49.9,20.1,30.24,North,350,0.0,0.0,30,0.00,,---,0.00,VWS V14.00,2013-02-01 21:55:00,
2013-02-01 14:00:00,50.1,23.9,30.24,North,350,0.0,2.0,36,0.00,,---,0.00,VWS V14.00,2013-02-01 22:00:00,
2013-02-01 14:05:00,50.5,23.5,30.24,North,349,0.0,0.0,34,0.00,,---,0.00,VWS V14.00,2013-02-01 22:05:00,
2013-02-01 14:10:00,50.9,23.2,30.24,North,349,0.0,0.0,34,0.00,,---,0.00,VWS V14.00,2013-02-01 22:10:00,
2013-02-01 14:15:00,50.8,23.8,30.23,North,350,0.0,2.0,34,0.00,,---,0.00,VWS V14.00,2013-02-01 22:15:00,
2013-02-01 14:20:00,50.6,22.2,30.23,North,350,0.0,0.0,32,0.00,,---,0.00,VWS V14.00,2013-02-01 22:20:00,
2013-02-01 14:25:00,50.9,25.2,30.24,North,350,0.0,0.0,36,0.00,,---,0.00,VWS V14.00,2013-02-01 22:25:00,
2013-02-01 14:30:00,50.9,25.2,30.23,North,349,4.0,8.0,36,0.00,,---,0.00,VWS V14.00,2013-02-01 22:30:00,
2013-02-01 14:35:00,51.3,25.6,30.23,North,350,0.0,4.0,36,0.00,,---,0.00,VWS V14.00,2013-02-01 22:35:00,
2013-02-01 14:40:00,51.9,24.8,30.23,North,350,3.0,5.0,34,0.00,,---,0.00,VWS V14.00,2013-02-01 22:40:00,
2013-02-01 14:45:00,51.8,26.0,30.23,North,350,0.0,6.0,36,0.00,,---,0.00,VWS V14.00,2013-02-01 22:45:00,
2013-02-01 14:55:00,51.9,25.5,30.23,North,350,0.0,6.0,36,0.00,,---,0.00,VWS V14.00,2013-02-01 22:55:00,
2013-02-01 15:00:00,51.8,24.7,30.23,North,350,0.0,4.0,34,0.00,,---,0.00,VWS V14.00,2013-02-01 23:00:00,
2013-02-01 15:10:00,52.0,27.5,30.24,North,350,0.0,0.0,38,0.00,,---,0.00,VWS V14.00,2013-02-01 23:10:00,
2013-02-01 15:15:00,52.2,26.4,30.23,North,350,0.0,6.0,36,0.00,,---,0.00,VWS V14.00,2013-02-01 23:15:00,
2013-02-01 15:20:00,52.3,26.5,30.23,North,349,0.0,5.0,36,0.00,,---,0.00,VWS V14.00,2013-02-01 23:20:00,
2013-02-01 15:25:00,52.1,27.6,30.24,North,349,4.0,7.0,38,0.00,,---,0.00,VWS V14.00,2013-02-01 23:25:00,
2013-02-01 15:30:00,51.9,27.4,30.24,North,350,0.0,4.0,38,0.00,,---,0.00,VWS V14.00,2013-02-01 23:30:00,
2013-02-01 15:35:00,51.9,27.4,30.24,North,350,0.0,6.0,38,0.00,,---,0.00,VWS V14.00,2013-02-01 23:35:00,
2013-02-01 15:40:00,52.1,27.6,30.24,North,350,0.0,0.0,38,0.00,,---,0.00,VWS V14.00,2013-02-01 23:40:00,
2013-02-01 15:45:00,52.0,28.1,30.24,North,349,0.0,6.0,40,0.00,,---,0.00,VWS V14.00,2013-02-01 23:45:00,
2013-02-01 15:50:00,51.9,28.0,30.24,North,350,0.0,6.0,40,0.00,,---,0.00,VWS V14.00,2013-02-01 23:50:00,
2013-02-01 15:55:00,51.9,27.4,30.24,North,350,0.0,0.0,38,0.00,,---,0.00,VWS V14.00,2013-02-01 23:55:00,
2013-02-01 16:00:00,52.0,28.1,30.24,North,350,0.0,4.0,40,0.00,,---,0.00,VWS V14.00,2013-02-02 00:00:00,
2013-02-01 16:05:00,52.0,28.1,30.24,North,349,0.0,0.0,40,0.00,,---,0.00,VWS V14.00,2013-02-02 00:05:00,
2013-02-01 16:10:00,51.9,28.7,30.24,North,350,0.0,8.0,40,0.00,,---,0.00,VWS V14.00,2013-02-02 00:10:00,
2013-02-01 16:15:00,51.6,28.4,30.24,North,350,0.0,6.0,40,0.00,,---,0.00,VWS V14.00,2013-02-02 00:15:00,
2013-02-01 16:20:00,51.4,28.2,30.24,North,349,3.0,7.0,40,0.00,,---,0.00,VWS V14.00,2013-02-02 00:20:00,
2013-02-01 16:25:00,51.2,29.8,30.24,North,350,0.0,6.0,44,0.00,,---,0.00,VWS V14.00,2013-02-02 00:25:00,
2013-02-01 16:30:00,51.1,29.1,30.24,North,350,0.0,4.0,42,0.00,,---,0.00,VWS V14.00,2013-02-02 00:30:00,
2013-02-01 16:35:00,50.8,29.4,30.24,North,350,2.0,4.0,44,0.00,,---,0.00,VWS V14.00,2013-02-02 00:35:00,
2013-02-01 16:40:00,50.5,29.1,30.24,North,349,0.0,5.0,44,0.00,,---,0.00,VWS V14.00,2013-02-02 00:40:00,
2013-02-01 16:45:00,50.0,28.7,30.24,North,350,0.0,5.0,44,0.00,,---,0.00,VWS V14.00,2013-02-02 00:45:00,
2013-02-01 16:50:00,49.4,28.7,30.24,North,350,0.0,4.0,44,0.00,,---,0.00,VWS V14.00,2013-02-02 00:50:00,
2013-02-01 16:55:00,48.9,29.3,30.25,North,349,0.0,2.0,46,0.00,,---,0.00,VWS V14.00,2013-02-02 00:55:00,
2013-02-01 17:00:00,48.5,29.0,30.25,North,349,0.0,0.0,46,0.00,,---,0.00,VWS V14.00,2013-02-02 01:00:00,
2013-02-01 17:05:00,48.1,29.1,30.25,North,350,0.0,0.0,48,0.00,,---,0.00,VWS V14.00,2013-02-02 01:05:00,
2013-02-01 17:10:00,47.8,28.8,30.25,North,350,0.0,0.0,48,0.00,,---,0.00,VWS V14.00,2013-02-02 01:10:00,
2013-02-01 17:15:00,47.5,29.1,30.25,North,349,0.0,0.0,48,0.00,,---,0.00,VWS V14.00,2013-02-02 01:15:00,
2013-02-01 17:20:00,46.8,28.9,30.25,North,350,0.0,3.0,50,0.00,,---,0.00,VWS V14.00,2013-02-02 01:20:00,
2013-02-01 17:25:00,46.0,28.7,30.25,North,350,0.0,0.0,50,0.00,,---,0.00,VWS V14.00,2013-02-02 01:25:00,
2013-02-01 17:30:00,45.4,27.6,30.25,North,349,0.0,0.0,50,0.00,,---,0.00,VWS V14.00,2013-02-02 01:30:00,
2013-02-01 17:35:00,44.9,27.6,30.25,North,349,0.0,0.0,50,0.00,,---,0.00,VWS V14.00,2013-02-02 01:35:00,
2013-02-01 17:40:00,44.5,26.8,30.26,North,350,0.0,0.0,50,0.00,,---,0.00,VWS V14.00,2013-02-02 01:40:00,
2013-02-01 17:45:00,44.1,25.9,30.26,North,350,0.0,0.0,48,0.00,,---,0.00,VWS V14.00,2013-02-02 01:45:00,
2013-02-01 17:50:00,44.1,25.9,30.26,North,350,0.0,0.0,48,0.00,,---,0.00,VWS V14.00,2013-02-02 01:50:00,
2013-02-01 17:55:00,44.3,26.1,30.26,North,349,0.0,0.0,48,0.00,,---,0.00,VWS V14.00,2013-02-02 01:55:00,
2013-02-01 18:00:00,44.2,26.0,30.26,North,350,0.0,0.0,48,0.00,,---,0.00,VWS V14.00,2013-02-02 02:00:00,
2013-02-01 18:05:00,44.2,26.5,30.26,North,350,0.0,0.0,50,0.00,,---,0.00,VWS V14.00,2013-02-02 02:05:00,
2013-02-01 18:10:00,43.9,26.7,30.26,North,349,0.0,4.0,50,0.00,,---,0.00,VWS V14.00,2013-02-02 02:10:00,
2013-02-01 18:15:00,43.7,26.5,30.26,North,350,0.0,0.0,50,0.00,,---,0.00,VWS V14.00,2013-02-02 02:15:00,
2013-02-01 18:20:00,43.4,26.3,30.26,North,349,0.0,7.0,50,0.00,,---,0.00,VWS V14.00,2013-02-02 02:20:00,
2013-02-01 18:30:00,42.4,26.3,30.27,North,349,0.0,0.0,52,0.00,,---,0.00,VWS V14.00,2013-02-02 02:30:00,
2013-02-01 18:35:00,41.9,26.3,30.27,North,350,0.0,0.0,54,0.00,,---,0.00,VWS V14.00,2013-02-02 02:35:00,
2013-02-01 18:40:00,41.8,26.6,30.27,North,350,0.0,0.0,54,0.00,,---,0.00,VWS V14.00,2013-02-02 02:40:00,
2013-02-01 18:45:00,41.6,26.4,30.27,North,349,0.0,0.0,54,0.00,,---,0.00,VWS V14.00,2013-02-02 02:45:00,
2013-02-01 18:50:00,41.4,26.7,30.27,North,349,0.0,0.0,56,0.00,,---,0.00,VWS V14.00,2013-02-02 02:50:00,
2013-02-01 18:55:00,41.4,26.7,30.27,North,350,0.0,0.0,56,0.00,,---,0.00,VWS V14.00,2013-02-02 02:55:00,
2013-02-01 19:00:00,41.2,26.9,30.28,North,350,0.0,0.0,56,0.00,,---,0.00,VWS V14.00,2013-02-02 03:00:00,
2013-02-01 19:05:00,40.9,26.6,30.28,North,350,0.0,0.0,56,0.00,,---,0.00,VWS V14.00,2013-02-02 03:05:00,
2013-02-01 19:10:00,41.0,26.7,30.28,North,349,0.0,0.0,56,0.00,,---,0.00,VWS V14.00,2013-02-02 03:10:00,
2013-02-01 19:15:00,40.9,27.1,30.28,North,350,0.0,0.0,58,0.00,,---,0.00,VWS V14.00,2013-02-02 03:15:00,
2013-02-01 19:20:00,40.7,26.9,30.28,North,350,0.0,0.0,58,0.00,,---,0.00,VWS V14.00,2013-02-02 03:20:00,
2013-02-01 19:25:00,40.7,26.9,30.28,North,350,0.0,7.0,58,0.00,,---,0.00,VWS V14.00,2013-02-02 03:25:00,
2013-02-01 19:30:00,40.3,26.9,30.29,North,349,0.0,0.0,58,0.00,,---,0.00,VWS V14.00,2013-02-02 03:30:00,
2013-02-01 19:35:00,40.2,26.8,30.29,North,350,0.0,0.0,58,0.00,,---,0.00,VWS V14.00,2013-02-02 03:35:00,
2013-02-01 19:40:00,40.1,26.7,30.29,North,350,0.0,0.0,58,0.00,,---,0.00,VWS V14.00,2013-02-02 03:40:00,
2013-02-01 19:45:00,40.1,26.7,30.29,North,349,0.0,0.0,58,0.00,,---,0.00,VWS V14.00,2013-02-02 03:45:00,
2013-02-01 19:50:00,40.3,26.5,30.29,North,350,0.0,0.0,58,0.00,,---,0.00,VWS V14.00,2013-02-02 03:50:00,
2013-02-01 19:55:00,40.4,26.6,30.29,North,350,0.0,0.0,58,0.00,,---,0.00,VWS V14.00,2013-02-02 03:55:00,
2013-02-01 20:00:00,40.7,26.9,30.29,North,350,0.0,0.0,58,0.00,,---,0.00,VWS V14.00,2013-02-02 04:00:00,
2013-02-01 20:05:00,40.9,27.1,30.29,North,350,0.0,0.0,58,0.00,,---,0.00,VWS V14.00,2013-02-02 04:05:00,
2013-02-01 20:10:00,40.8,26.5,30.30,North,350,0.0,0.0,56,0.00,,---,0.00,VWS V14.00,2013-02-02 04:10:00,
2013-02-01 20:15:00,40.8,26.5,30.30,North,350,0.0,0.0,56,0.00,,---,0.00,VWS V14.00,2013-02-02 04:15:00,
2013-02-01 20:20:00,40.6,26.4,30.30,North,349,0.0,0.0,56,0.00,,---,0.00,VWS V14.00,2013-02-02 04:20:00,
2013-02-01 20:25:00,40.6,26.4,30.30,North,349,0.0,3.0,56,0.00,,---,0.00,VWS V14.00,2013-02-02 04:25:00,
2013-02-01 20:30:00,40.4,26.2,30.31,North,350,0.0,1.0,56,0.00,,---,0.00,VWS V14.00,2013-02-02 04:30:00,
2013-02-01 20:35:00,40.4,26.2,30.30,North,350,0.0,0.0,56,0.00,,---,0.00,VWS V14.00,2013-02-02 04:35:00,
2013-02-01 20:40:00,40.2,26.0,30.30,North,350,0.0,0.0,56,0.00,,---,0.00,VWS V14.00,2013-02-02 04:40:00,
2013-02-01 20:45:00,40.0,25.8,30.30,North,350,0.0,0.0,56,0.00,,---,0.00,VWS V14.00,2013-02-02 04:45:00,
2013-02-01 20:50:00,39.8,26.0,30.31,North,350,0.0,0.0,58,0.00,,---,0.00,VWS V14.00,2013-02-02 04:50:00,
2013-02-01 20:55:00,39.5,25.8,30.31,North,349,0.0,0.0,58,0.00,,---,0.00,VWS V14.00,2013-02-02 04:55:00,
2013-02-01 21:05:00,39.4,26.1,30.31,North,349,0.0,0.0,58,0.00,,---,0.00,VWS V14.00,2013-02-02 05:05:00,
2013-02-01 21:10:00,39.5,26.2,30.31,North,350,0.0,0.0,58,0.00,,---,0.00,VWS V14.00,2013-02-02 05:10:00,
2013-02-01 21:15:00,39.6,25.9,30.31,North,350,0.0,0.0,58,0.00,,---,0.00,VWS V14.00,2013-02-02 05:15:00,
2013-02-01 21:25:00,39.9,26.1,30.31,North,350,0.0,0.0,58,0.00,,---,0.00,VWS V14.00,2013-02-02 05:25:00,
2013-02-01 21:30:00,39.4,26.1,30.31,North,350,0.0,0.0,58,0.00,,---,0.00,VWS V14.00,2013-02-02 05:30:00,
2013-02-01 21:35:00,38.6,25.7,30.31,North,349,0.0,0.0,60,0.00,,---,0.00,VWS V14.00,2013-02-02 05:35:00,
2013-02-01 21:40:00,37.7,25.3,30.31,North,349,0.0,0.0,60,0.00,,---,0.00,VWS V14.00,2013-02-02 05:40:00,
2013-02-01 21:45:00,37.1,25.5,30.31,North,349,0.0,0.0,62,0.00,,---,0.00,VWS V14.00,2013-02-02 05:45:00,
2013-02-01 21:50:00,36.6,25.4,30.31,North,350,0.0,0.0,64,0.00,,---,0.00,VWS V14.00,2013-02-02 05:50:00,
2013-02-01 21:55:00,37.1,25.5,30.31,North,350,0.0,0.0,62,0.00,,---,0.00,VWS V14.00,2013-02-02 05:55:00,
2013-02-01 22:00:00,38.1,26.0,30.31,North,349,0.0,0.0,62,0.00,,---,0.00,VWS V14.00,2013-02-02 06:00:00,
2013-02-01 22:05:00,37.1,25.1,30.31,North,350,0.0,0.0,62,0.00,,---,0.00,VWS V14.00,2013-02-02 06:05:00,
2013-02-01 22:10:00,35.9,25.1,30.31,North,350,0.0,0.0,64,0.00,,---,0.00,VWS V14.00,2013-02-02 06:10:00,
2013-02-01 22:15:00,35.4,25.0,30.31,North,349,0.0,0.0,66,0.00,,---,0.00,VWS V14.00,2013-02-02 06:15:00,
2013-02-01 22:20:00,34.9,24.9,30.31,North,350,0.0,0.0,66,0.00,,---,0.00,VWS V14.00,2013-02-02 06:20:00,
2013-02-01 22:25:00,35.0,25.3,30.31,North,350,0.0,0.0,68,0.00,,---,0.00,VWS V14.00,2013-02-02 06:25:00,
2013-02-01 22:30:00,34.8,25.1,30.31,North,350,0.0,0.0,68,0.00,,---,0.00,VWS V14.00,2013-02-02 06:30:00,
2013-02-01 22:35:00,34.7,25.1,30.31,North,349,0.0,0.0,68,0.00,,---,0.00,VWS V14.00,2013-02-02 06:35:00,
2013-02-01 22:40:00,34.7,25.1,30.31,North,350,0.0,0.0,68,0.00,,---,0.00,VWS V14.00,2013-02-02 06:40:00,
2013-02-01 22:45:00,35.9,25.9,30.31,North,350,0.0,0.0,66,0.00,,---,0.00,VWS V14.00,2013-02-02 06:45:00,
2013-02-01 22:49:00,36.6,25.8,30.31,North,350,0.0,0.0,64,0.00,,---,0.00,VWS V14.00,2013-02-02 06:49:00,
2013-02-01 22:55:00,35.8,25.0,30.31,North,349,0.0,0.0,64,0.00,,---,0.00,VWS V14.00,2013-02-02 06:55:00,
2013-02-01 23:00:00,35.8,25.4,30.32,North,350,0.0,0.0,66,0.00,,---,0.00,VWS V14.00,2013-02-02 07:00:00,
2013-02-01 23:05:00,36.5,25.7,30.31,North,350,0.0,0.0,64,0.00,,---,0.00,VWS V14.00,2013-02-02 07:05:00,
2013-02-01 23:10:00,36.9,25.7,30.32,North,350,0.0,0.0,64,0.00,,---,0.00,VWS V14.00,2013-02-02 07:10:00,
2013-02-01 23:15:00,36.1,25.3,30.31,North,349,0.0,0.0,64,0.00,,---,0.00,VWS V14.00,2013-02-02 07:15:00,
2013-02-01 23:20:00,35.5,25.1,30.31,North,350,0.0,0.0,66,0.00,,---,0.00,VWS V14.00,2013-02-02 07:20:00,
2013-02-01 23:25:00,34.6,25.0,30.31,North,350,0.0,0.0,68,0.00,,---,0.00,VWS V14.00,2013-02-02 07:25:00,
2013-02-01 23:30:00,34.4,25.1,30.31,North,350,0.0,0.0,68,0.00,,---,0.00,VWS V14.00,2013-02-02 07:30:00,
2013-02-01 23:35:00,34.4,25.1,30.31,North,350,0.0,0.0,68,0.00,,---,0.00,VWS V14.00,2013-02-02 07:35:00,
2013-02-01 23:45:00,35.6,25.6,30.32,North,349,0.0,0.0,66,0.00,,---,0.00,VWS V14.00,2013-02-02 07:45:00,
2013-02-01 23:50:00,35.6,25.2,30.32,North,349,0.0,0.0,66,0.00,,---,0.00,VWS V14.00,2013-02-02 07:50:00,
2013-02-01 23:55:00,35.2,24.8,30.32,North,350,0.0,0.0,66,0.00,,---,0.00,VWS V14.00,2013-02-02 07:55:00,